Location: Saluda
(35.2377°N, 82.3468°W)
Time: 23:23:55
(UTC+00:00)

Tiros 1 - Pass Details

Date: 10 October 2022
Orbit: 629 x 662 km, 48.4° (Epoch: 09 December)

Event Time Altitude Azimuth Distance (km) Brightness Sun altitude
Rises 23:32:35 0° 188° (S) 2,956 10.7 -7.3°
Reaches altitude 10° 23:35:43 10° 167° (SSE) 2,056 9.6 -7.9°
Maximum altitude 23:38:35 16° 129° (SE) 1,694 8.9 -8.5°
Enters shadow 23:41:06 11° 95° (E) 1,984 9.0 -9.0°
